| time (UTC) | temp F | wind direction | speed knots | gust knots | rain 1hr in | rain 24hr in | rain mn in | humidity % | barometer mb |
| 20260906142617 | 70 | 92 | 0.0 | 4.3 | 0.00 | 0.00 | 0.00 | 91 | 1018.5 |
| 20260906142124 | 70 | 72 | 1.7 | 4.3 | 0.00 | 0.00 | 0.00 | 91 | 1018.5 |
| 20260906141635 | 69 | 57 | 1.7 | 5.2 | 0.00 | 0.00 | 0.00 | 91 | 1018.5 |
| 20260906141118 | 70 | 46 | 1.7 | 5.2 | 0.00 | 0.00 | 0.00 | 91 | 1018.5 |
| 20260906140624 | 70 | 51 | 0.9 | 5.2 | 0.00 | 0.00 | 0.00 | 91 | 1018.5 |
| 20260906140114 | 70 | 80 | 0.0 | 2.6 | 0.00 | 0.00 | 0.00 | 92 | 1018.5 |
| 20260906135626 | 70 | 79 | 0.0 | 3.5 | 0.00 | 0.00 | 0.00 | 92 | 1018.5 |
| 20260906135131 | 69 | 77 | 0.9 | 3.5 | 0.00 | 0.00 | 0.00 | 93 | 1018.6 |
| 20260906134641 | 69 | 49 | 0.0 | 7.0 | 0.00 | 0.00 | 0.00 | 92 | 1018.6 |
| 20260906134126 | 69 | 42 | 0.9 | 7.0 | 0.00 | 0.00 | 0.00 | 92 | 1018.6 |
| 20260906133638 | 69 | 37 | 0.0 | 7.0 | 0.00 | 0.00 | 0.00 | 93 | 1018.6 |
| 20260906133121 | 69 | 37 | 0.9 | 7.0 | 0.00 | 0.00 | 0.00 | 93 | 1018.7 |
| 20260906132632 | 69 | 65 | 0.9 | 4.3 | 0.00 | 0.00 | 0.00 | 93 | 1018.6 |
| 20260906132137 | 68 | 63 | 0.9 | 4.3 | 0.00 | 0.00 | 0.00 | 93 | 1018.6 |
| 20260906131627 | 68 | 36 | 0.9 | 4.3 | 0.00 | 0.00 | 0.00 | 93 | 1018.7 |
| 20260906131132 | 68 | 38 | 0.0 | 1.7 | 0.00 | 0.00 | 0.00 | 93 | 1018.7 |
| 20260906130617 | 68 | 38 | 0.0 | 3.5 | 0.00 | 0.00 | 0.00 | 93 | 1018.6 |
| 20260906130129 | 68 | 38 | 0.9 | 3.5 | 0.00 | 0.00 | 0.00 | 93 | 1018.5 |
| 20260906125633 | 68 | 85 | 0.0 | 3.5 | 0.00 | 0.00 | 0.00 | 93 | 1018.6 |
| 20260906125120 | 68 | 86 | 0.0 | 3.5 | 0.00 | 0.00 | 0.00 | 93 | 1018.6 |
| 20260906124623 | 68 | 86 | 0.0 | 3.5 | 0.00 | 0.00 | 0.00 | 93 | 1018.4 |
| 20260906124134 | 68 | 86 | 0.0 | 3.5 | 0.00 | 0.00 | 0.00 | 93 | 1018.2 |
| 20260906123617 | 68 | 86 | 0.0 | 3.5 | 0.00 | 0.00 | 0.00 | 93 | 1018.2 |
| 20260906123139 | 67 | 57 | 0.0 | 3.5 | 0.00 | 0.00 | 0.00 | 93 | 1018.1 |
| 20260906122630 | 67 | 57 | 0.9 | 3.5 | 0.00 | 0.00 | 0.00 | 93 | 1018.1 |
| 20260906122113 | 67 | 53 | 0.9 | 4.3 | 0.00 | 0.00 | 0.00 | 93 | 1018.1 |
| 20260906121645 | 67 | 53 | 0.9 | 4.3 | 0.00 | 0.00 | 0.00 | 93 | 1018.0 |
| 20260906121156 | 67 | 61 | 0.9 | 3.5 | 0.00 | 0.00 | 0.00 | 93 | 1017.8 |
| 20260906120620 | 67 | 30 | 0.0 | 1.7 | 0.00 | 0.00 | 0.00 | 93 | 1017.7 |
| 20260906120152 | 67 | 29 | 0.0 | 0.0 | 0.00 | 0.00 | 0.00 | 93 | 1017.8 |
| 20260906115613 | 67 | 29 | 0.0 | 0.9 | 0.00 | 0.00 | 0.00 | 93 | 1017.7 |
| 20260906115116 | 66 | 29 | 0.0 | 0.9 | 0.00 | 0.00 | 0.00 | 93 | 1017.7 |
| 20260906114627 | 66 | 29 | 0.0 | 0.0 | 0.00 | 0.00 | 0.00 | 93 | 1017.6 |
| 20260906114130 | 66 | 29 | 0.0 | 0.0 | 0.00 | 0.00 | 0.00 | 92 | 1017.5 |
| 20260906113612 | 66 | 29 | 0.0 | 0.9 | 0.00 | 0.00 | 0.00 | 93 | 1017.3 |
| 20260906113123 | 66 | 29 | 0.0 | 0.9 | 0.00 | 0.00 | 0.00 | 92 | 1017.3 |
| 20260906112628 | 67 | 29 | 0.0 | 3.5 | 0.00 | 0.00 | 0.00 | 93 | 1017.4 |
| 20260906112114 | 67 | 29 | 0.9 | 3.5 | 0.00 | 0.00 | 0.00 | 93 | 1017.4 |
| 20260906111642 | 67 | 24 | 0.0 | 4.3 | 0.00 | 0.00 | 0.00 | 93 | 1017.2 |
| 20260906111154 | 67 | 24 | 0.9 | 4.3 | 0.00 | 0.00 | 0.00 | 93 | 1017.2 |
| 20260906110617 | 67 | 28 | 0.0 | 0.9 | 0.00 | 0.00 | 0.00 | 93 | 1017.2 |
| 20260906110120 | 67 | 28 | 0.0 | 2.6 | 0.00 | 0.00 | 0.00 | 93 | 1017.0 |
| 20260906105630 | 66 | 28 | 0.9 | 2.6 | 0.00 | 0.00 | 0.00 | 92 | 1017.0 |
| 20260906105136 | 66 | 28 | 0.0 | 2.6 | 0.00 | 0.00 | 0.00 | 93 | 1016.8 |
| 20260906104621 | 66 | 28 | 0.0 | 2.6 | 0.00 | 0.00 | 0.00 | 92 | 1016.8 |
| 20260906104127 | 66 | 28 | 0.0 | 0.0 | 0.00 | 0.00 | 0.00 | 92 | 1016.7 |
| 20260906103639 | 66 | 28 | 0.0 | 0.0 | 0.00 | 0.00 | 0.00 | 92 | 1016.7 |
| 20260906103121 | 66 | 28 | 0.0 | 1.7 | 0.00 | 0.00 | 0.00 | 92 | 1016.8 |
| 20260906102634 | 66 | 28 | 0.0 | 1.7 | 0.00 | 0.00 | 0.00 | 92 | 1016.8 |
| 20260906102122 | 67 | 28 | 0.0 | 0.0 | 0.00 | 0.00 | 0.00 | 92 | 1016.8 |
| 20260906101624 | 67 | 28 | 0.0 | 0.0 | 0.00 | 0.00 | 0.00 | 92 | 1016.9 |
| 20260906101137 | 67 | 28 | 0.0 | 0.0 | 0.00 | 0.00 | 0.00 | 92 | 1016.7 |
| 20260906100619 | 67 | 28 | 0.0 | 0.0 | 0.00 | 0.00 | 0.00 | 92 | 1016.8 |
| 20260906100124 | 67 | 29 | 0.0 | 0.0 | 0.00 | 0.00 | 0.00 | 92 | 1016.7 |
| 20260906095635 | 67 | 29 | 0.0 | 0.0 | 0.00 | 0.00 | 0.00 | 92 | 1016.7 |
| 20260906095138 | 67 | 29 | 0.0 | 0.0 | 0.00 | 0.00 | 0.00 | 92 | 1016.6 |
| 20260906094624 | 67 | 29 | 0.0 | 0.0 | 0.00 | 0.00 | 0.00 | 92 | 1016.7 |
| 20260906094152 | 67 | 29 | 0.0 | 0.0 | 0.00 | 0.00 | 0.00 | 92 | 1016.6 |
| 20260906093614 | 67 | 29 | 0.0 | 0.0 | 0.00 | 0.00 | 0.00 | 92 | 1016.6 |
| 20260906093125 | 67 | 29 | 0.0 | 0.0 | 0.00 | 0.00 | 0.00 | 92 | 1016.5 |
| 20260906092631 | 67 | 29 | 0.0 | 0.0 | 0.00 | 0.00 | 0.00 | 92 | 1016.4 |
| 20260906092114 | 67 | 29 | 0.0 | 0.0 | 0.00 | 0.00 | 0.00 | 91 | 1016.4 |
| 20260906091626 | 67 | 29 | 0.0 | 0.0 | 0.00 | 0.00 | 0.00 | 91 | 1016.3 |
| 20260906091131 | 68 | 29 | 0.0 | 0.0 | 0.00 | 0.00 | 0.00 | 91 | 1016.4 |
| 20260906090614 | 68 | 29 | 0.0 | 0.0 | 0.00 | 0.00 | 0.00 | 91 | 1016.3 |
| 20260906090124 | 68 | 29 | 0.0 | 0.0 | 0.00 | 0.00 | 0.00 | 91 | 1016.4 |
| 20260906085656 | 68 | 29 | 0.0 | 0.0 | 0.00 | 0.00 | 0.00 | 91 | 1016.4 |
| 20260906085119 | 68 | 29 | 0.0 | 0.0 | 0.00 | 0.00 | 0.00 | 91 | 1016.6 |
| 20260906084622 | 68 | 29 | 0.0 | 0.0 | 0.00 | 0.00 | 0.00 | 91 | 1016.6 |
| 20260906084133 | 68 | 29 | 0.0 | 0.0 | 0.00 | 0.00 | 0.00 | 91 | 1016.5 |
| 20260906083620 | 68 | 29 | 0.0 | 0.0 | 0.00 | 0.00 | 0.00 | 91 | 1016.4 |
| 20260906083120 | 68 | 29 | 0.0 | 0.0 | 0.00 | 0.00 | 0.00 | 91 | 1016.5 |
| 20260906082652 | 68 | 29 | 0.0 | 0.0 | 0.00 | 0.00 | 0.00 | 91 | 1016.6 |
| 20260906082114 | 68 | 29 | 0.0 | 0.0 | 0.00 | 0.00 | 0.00 | 91 | 1016.5 |
| 20260906081625 | 68 | 29 | 0.0 | 0.0 | 0.00 | 0.00 | 0.00 | 91 | 1016.6 |
| 20260906081131 | 69 | 29 | 0.0 | 0.0 | 0.00 | 0.00 | 0.00 | 91 | 1016.6 |
| 20260906080616 | 69 | 29 | 0.0 | 0.0 | 0.00 | 0.00 | 0.00 | 91 | 1016.5 |
| 20260906080122 | 69 | 29 | 0.0 | 0.0 | 0.00 | 0.00 | 0.00 | 91 | 1016.3 |
| 20260906075628 | 69 | 29 | 0.0 | 1.7 | 0.00 | 0.00 | 0.00 | 90 | 1016.3 |
| 20260906075113 | 69 | 29 | 0.0 | 1.7 | 0.00 | 0.00 | 0.00 | 91 | 1016.4 |
| 20260906074627 | 69 | 29 | 0.0 | 1.7 | 0.00 | 0.00 | 0.00 | 90 | 1016.4 |
| 20260906074131 | 69 | 29 | 0.0 | 1.7 | 0.00 | 0.00 | 0.00 | 90 | 1016.4 |
| 20260906073614 | 69 | 29 | 0.0 | 1.7 | 0.00 | 0.00 | 0.00 | 90 | 1016.4 |
| 20260906073125 | 69 | 29 | 0.0 | 0.0 | 0.00 | 0.00 | 0.00 | 90 | 1016.4 |
| 20260906072657 | 69 | 29 | 0.0 | 0.0 | 0.00 | 0.00 | 0.00 | 90 | 1016.5 |
| 20260906072119 | 69 | 29 | 0.0 | 2.6 | 0.00 | 0.00 | 0.00 | 90 | 1016.7 |
| 20260906071622 | 69 | 29 | 0.0 | 0.0 | 0.00 | 0.00 | 0.00 | 90 | 1016.8 |
| 20260906071134 | 69 | 29 | 0.0 | 0.0 | 0.00 | 0.00 | 0.00 | 90 | 1016.8 |
| 20260906070617 | 69 | 29 | 0.0 | 0.0 | 0.00 | 0.00 | 0.00 | 89 | 1016.8 |
| 20260906070118 | 69 | 29 | 0.0 | 0.0 | 0.00 | 0.00 | 0.00 | 89 | 1016.8 |
| 20260906065627 | 70 | 29 | 0.0 | 0.0 | 0.00 | 0.00 | 0.00 | 89 | 1016.8 |
| 20260906065131 | 70 | 29 | 0.0 | 0.0 | 0.00 | 0.00 | 0.00 | 89 | 1016.9 |
| 20260906064615 | 70 | 29 | 0.0 | 1.7 | 0.00 | 0.00 | 0.00 | 89 | 1017.0 |
| 20260906064125 | 70 | 29 | 0.0 | 1.7 | 0.00 | 0.00 | 0.00 | 89 | 1017.0 |
| 20260906063647 | 70 | 29 | 0.0 | 0.9 | 0.00 | 0.00 | 0.00 | 88 | 1017.0 |
| 20260906063117 | 70 | 29 | 0.0 | 0.0 | 0.00 | 0.00 | 0.00 | 88 | 1017.0 |
| 20260906062619 | 71 | 29 | 0.0 | 0.9 | 0.00 | 0.00 | 0.00 | 88 | 1016.9 |
| 20260906062149 | 71 | 29 | 0.0 | 1.7 | 0.00 | 0.00 | 0.00 | 88 | 1016.8 |
| 20260906061657 | 71 | 29 | 0.0 | 1.7 | 0.00 | 0.00 | 0.00 | 88 | 1016.8 |
| 20260906061118 | 71 | 29 | 0.0 | 1.7 | 0.00 | 0.00 | 0.00 | 88 | 1016.6 |
| 20260906060625 | 71 | 29 | 0.0 | 2.6 | 0.00 | 0.00 | 0.00 | 88 | 1016.7 |
| 20260906060134 | 71 | 29 | 0.9 | 3.5 | 0.00 | 0.00 | 0.00 | 88 | 1016.7 |
| 20260906055639 | 71 | 29 | 0.0 | 3.5 | 0.00 | 0.00 | 0.00 | 88 | 1016.7 |
| 20260906055129 | 71 | 28 | 0.9 | 3.5 | 0.00 | 0.00 | 0.00 | 88 | 1016.7 |
| 20260906054632 | 71 | 28 | 0.0 | 5.2 | 0.00 | 0.00 | 0.00 | 88 | 1016.6 |
| 20260906054142 | 71 | 28 | 1.7 | 5.2 | 0.00 | 0.00 | 0.00 | 88 | 1016.6 |
| 20260906053625 | 71 | 44 | 0.0 | 3.5 | 0.00 | 0.00 | 0.00 | 88 | 1016.5 |
| 20260906053134 | 71 | 44 | 0.9 | 3.5 | 0.00 | 0.00 | 0.00 | 88 | 1016.4 |
| 20260906052619 | 71 | 44 | 0.9 | 3.5 | 0.00 | 0.00 | 0.00 | 88 | 1016.5 |
| 20260906052122 | 71 | 44 | 0.0 | 3.5 | 0.00 | 0.00 | 0.00 | 88 | 1016.3 |
| 20260906051635 | 71 | 44 | 0.0 | 1.7 | 0.00 | 0.00 | 0.00 | 88 | 1016.4 |
| 20260906051138 | 71 | 44 | 0.0 | 2.6 | 0.00 | 0.00 | 0.00 | 88 | 1016.4 |
| 20260906050628 | 71 | 44 | 0.0 | 2.6 | 0.00 | 0.00 | 0.00 | 87 | 1016.4 |
| 20260906050138 | 71 | 44 | 0.9 | 2.6 | 0.00 | 0.00 | 0.00 | 87 | 1016.4 |
| 20260906045623 | 71 | 44 | 0.0 | 2.6 | 0.00 | 0.00 | 0.00 | 87 | 1016.4 |
| 20260906045154 | 71 | 44 | 1.7 | 2.6 | 0.00 | 0.00 | 0.00 | 87 | 1016.4 |
| 20260906044617 | 72 | 44 | 0.0 | 1.7 | 0.00 | 0.00 | 0.00 | 87 | 1016.4 |
| 20260906044123 | 72 | 44 | 0.0 | 2.6 | 0.00 | 0.00 | 0.00 | 87 | 1016.4 |
| 20260906043652 | 72 | 44 | 0.0 | 4.3 | 0.00 | 0.00 | 0.00 | 87 | 1016.3 |
| 20260906043113 | 72 | 44 | 0.0 | 2.6 | 0.00 | 0.00 | 0.00 | 87 | 1016.2 |
| 20260906042614 | 72 | 44 | 0.0 | 4.3 | 0.00 | 0.00 | 0.00 | 87 | 1016.1 |
| 20260906042126 | 72 | 44 | 0.9 | 4.3 | 0.00 | 0.00 | 0.00 | 87 | 1016.0 |
| 20260906041630 | 72 | 46 | 0.0 | 4.3 | 0.00 | 0.00 | 0.00 | 87 | 1015.9 |
| 20260906041121 | 72 | 47 | 0.0 | 3.5 | 0.00 | 0.00 | 0.00 | 87 | 1015.9 |
| 20260906040624 | 72 | 47 | 0.9 | 5.2 | 0.00 | 0.00 | 0.00 | 86 | 1015.8 |
| 20260906040117 | 72 | 43 | 1.7 | 5.2 | 0.00 | 0.00 | 0.00 | 86 | 1015.8 |
| 20260906035618 | 72 | 61 | 0.0 | 4.3 | 0.00 | 0.00 | 0.00 | 86 | 1015.7 |
| 20260906035148 | 72 | 33 | 1.7 | 4.3 | 0.00 | 0.00 | 0.00 | 86 | 1015.6 |
| 20260906034631 | 72 | 80 | 0.9 | 4.3 | 0.00 | 0.00 | 0.00 | 86 | 1015.5 |
| 20260906034113 | 72 | 85 | 1.7 | 4.3 | 0.00 | 0.00 | 0.00 | 86 | 1015.3 |
| 20260906033624 | 72 | 46 | 0.9 | 3.5 | 0.00 | 0.00 | 0.00 | 85 | 1015.3 |
| 20260906033157 | 72 | 37 | 0.9 | 3.5 | 0.00 | 0.00 | 0.00 | 85 | 1015.5 |
| 20260906032617 | 72 | 37 | 0.0 | 7.8 | 0.00 | 0.00 | 0.00 | 85 | 1015.4 |
| 20260906032123 | 73 | 23 | 0.9 | 7.8 | 0.00 | 0.00 | 0.00 | 85 | 1015.3 |
| 20260906031634 | 73 | 83 | 2.6 | 7.8 | 0.00 | 0.00 | 0.00 | 85 | 1015.2 |
| 20260906031137 | 73 | 66 | 1.7 | 7.0 | 0.00 | 0.00 | 0.00 | 85 | 1015.3 |
| 20260906030625 | 73 | 62 | 1.7 | 5.2 | 0.00 | 0.00 | 0.00 | 85 | 1015.2 |
| 20260906030126 | 73 | 64 | 1.7 | 5.2 | 0.00 | 0.00 | 0.00 | 85 | 1015.0 |
| 20260906025637 | 74 | 59 | 1.7 | 4.3 | 0.00 | 0.00 | 0.00 | 85 | 1015.0 |
| 20260906025118 | 74 | 92 | 0.0 | 7.0 | 0.00 | 0.00 | 0.00 | 84 | 1015.0 |
| 20260906024632 | 74 | 82 | 0.9 | 7.0 | 0.00 | 0.00 | 0.00 | 84 | 1015.1 |
| 20260906024113 | 74 | 75 | 1.7 | 9.6 | 0.00 | 0.00 | 0.00 | 84 | 1014.9 |
| 20260906023638 | 74 | 94 | 1.7 | 9.6 | 0.00 | 0.00 | 0.00 | 84 | 1014.8 |
| 20260906023126 | 74 | 61 | 0.9 | 9.6 | 0.00 | 0.00 | 0.00 | 84 | 1014.8 |
| 20260906022632 | 75 | 44 | 2.6 | 9.6 | 0.00 | 0.00 | 0.00 | 84 | 1014.8 |
| 20260906022124 | 75 | 84 | 2.6 | 8.7 | 0.00 | 0.00 | 0.00 | 84 | 1014.7 |
| 20260906021624 | 75 | 75 | 0.0 | 7.8 | 0.00 | 0.00 | 0.00 | 85 | 1014.7 |
| 20260906021129 | 76 | 84 | 1.7 | 7.8 | 0.00 | 0.00 | 0.00 | 85 | 1014.6 |
| 20260906020638 | 76 | 54 | 0.9 | 6.1 | 0.00 | 0.00 | 0.00 | 85 | 1014.5 |
| 20260906020123 | 76 | 43 | 0.9 | 3.5 | 0.00 | 0.00 | 0.00 | 85 | 1014.6 |
| 20260906015613 | 76 | 92 | 0.9 | 4.3 | 0.00 | 0.00 | 0.00 | 85 | 1014.5 |
| 20260906015115 | 76 | 46 | 0.0 | 7.0 | 0.00 | 0.00 | 0.00 | 84 | 1014.4 |
| 20260906014627 | 76 | 39 | 2.6 | 7.0 | 0.00 | 0.00 | 0.00 | 84 | 1014.3 |
| 20260906014132 | 76 | 341 | 0.0 | 1.7 | 0.00 | 0.00 | 0.00 | 84 | 1014.4 |
| 20260906013618 | 76 | 341 | 0.0 | 0.9 | 0.00 | 0.00 | 0.00 | 84 | 1014.4 |
| 20260906013149 | 76 | 341 | 0.0 | 0.9 | 0.00 | 0.00 | 0.00 | 84 | 1014.3 |
| 20260906012615 | 76 | 341 | 0.0 | 0.9 | 0.00 | 0.00 | 0.00 | 83 | 1014.3 |
| 20260906012113 | 76 | 341 | 0.0 | 0.0 | 0.00 | 0.00 | 0.00 | 83 | 1014.2 |
| 20260906011618 | 76 | 341 | 0.0 | 0.0 | 0.00 | 0.00 | 0.00 | 83 | 1014.2 |
| 20260906011121 | 76 | 341 | 0.0 | 0.0 | 0.00 | 0.00 | 0.00 | 83 | 1014.2 |
| 20260906010631 | 76 | 341 | 0.0 | 2.6 | 0.00 | 0.00 | 0.00 | 83 | 1014.2 |
| 20260906010115 | 76 | 341 | 0.0 | 2.6 | 0.00 | 0.00 | 0.00 | 83 | 1014.1 |
| 20260906005630 | 76 | 341 | 0.0 | 1.7 | 0.00 | 0.00 | 0.00 | 83 | 1014.1 |
| 20260906005134 | 76 | 341 | 0.0 | 1.7 | 0.00 | 0.00 | 0.00 | 83 | 1014.1 |
| 20260906004617 | 77 | 341 | 0.0 | 1.7 | 0.00 | 0.00 | 0.00 | 82 | 1014.1 |
| 20260906004150 | 77 | 341 | 0.0 | 1.7 | 0.00 | 0.00 | 0.00 | 82 | 1014.2 |
| 20260906003614 | 77 | 341 | 0.0 | 1.7 | 0.00 | 0.00 | 0.00 | 81 | 1014.1 |
| 20260906003126 | 77 | 341 | 0.0 | 0.9 | 0.00 | 0.00 | 0.00 | 81 | 1014.2 |
| 20260906002628 | 77 | 341 | 0.0 | 0.9 | 0.00 | 0.00 | 0.00 | 81 | 1014.1 |
| 20260906002140 | 78 | 341 | 0.0 | 1.7 | 0.00 | 0.00 | 0.00 | 81 | 1014.2 |
| 20260906001620 | 78 | 341 | 0.0 | 1.7 | 0.00 | 0.00 | 0.00 | 80 | 1014.1 |
| 20260906001126 | 78 | 341 | 0.0 | 0.0 | 0.00 | 0.00 | 0.00 | 80 | 1014.1 |
| 20260906000637 | 78 | 341 | 0.0 | 0.0 | 0.00 | 0.00 | 0.00 | 80 | 1014.1 |
| 20260906000121 | 79 | 341 | 0.0 | 0.0 | 0.00 | 0.00 | 0.00 | 80 | 1014.2 |
| 20260905235652 | 79 | 341 | 0.0 | 1.7 | 0.00 | 0.00 | 0.00 | 79 | 1014.1 |
| 20260905235117 | 79 | 341 | 0.0 | 1.7 | 0.00 | 0.00 | 0.00 | 79 | 1014.3 |
| 20260905234622 | 79 | 341 | 0.0 | 2.6 | 0.00 | 0.00 | 0.00 | 79 | 1014.3 |
| 20260905234113 | 79 | 341 | 0.0 | 2.6 | 0.00 | 0.00 | 0.00 | 79 | 1014.3 |
| 20260905233617 | 79 | 341 | 0.9 | 4.3 | 0.00 | 0.00 | 0.00 | 78 | 1014.3 |
| 20260905233149 | 80 | 341 | 2.6 | 4.3 | 0.00 | 0.00 | 0.00 | 78 | 1014.4 |
| 20260905232632 | 80 | 346 | 1.7 | 7.0 | 0.00 | 0.00 | 0.00 | 77 | 1014.4 |
| 20260905232124 | 80 | 23 | 2.6 | 7.0 | 0.00 | 0.00 | 0.00 | 77 | 1014.4 |
| 20260905231630 | 80 | 21 | 2.6 | 7.8 | 0.00 | 0.00 | 0.00 | 77 | 1014.2 |
| 20260905231113 | 80 | 57 | 1.7 | 5.2 | 0.00 | 0.00 | 0.00 | 78 | 1014.2 |
| 20260905230624 | 80 | 28 | 0.9 | 3.5 | 0.00 | 0.00 | 0.00 | 79 | 1014.2 |
| 20260905230131 | 80 | 5 | 0.9 | 4.3 | 0.00 | 0.00 | 0.00 | 79 | 1014.2 |
| 20260905225615 | 80 | 22 | 0.9 | 5.2 | 0.00 | 0.00 | 0.00 | 79 | 1014.3 |
| 20260905225126 | 80 | 5 | 3.5 | 8.7 | 0.00 | 0.00 | 0.00 | 79 | 1014.3 |
| 20260905224632 | 80 | 355 | 2.6 | 8.7 | 0.00 | 0.00 | 0.00 | 79 | 1014.4 |
| 20260905224115 | 80 | 351 | 3.5 | 7.8 | 0.00 | 0.00 | 0.00 | 79 | 1014.3 |
| 20260905223648 | 81 | 360 | 2.6 | 7.0 | 0.00 | 0.00 | 0.00 | 78 | 1014.3 |
| 20260905223139 | 81 | 360 | 3.5 | 7.0 | 0.00 | 0.00 | 0.00 | 78 | 1014.3 |
| 20260905222621 | 81 | 5 | 1.7 | 7.8 | 0.00 | 0.00 | 0.00 | 77 | 1014.0 |
| 20260905222128 | 81 | 32 | 2.6 | 9.6 | 0.00 | 0.00 | 0.00 | 77 | 1013.9 |
| 20260905221619 | 81 | 339 | 3.5 | 9.6 | 0.00 | 0.00 | 0.00 | 77 | 1013.8 |
| 20260905221126 | 81 | 342 | 4.3 | 10.4 | 0.00 | 0.00 | 0.00 | 77 | 1013.9 |
| 20260905220639 | 82 | 351 | 4.3 | 8.7 | 0.00 | 0.00 | 0.00 | 77 | 1013.9 |
| 20260905220121 | 82 | 350 | 5.2 | 8.7 | 0.00 | 0.00 | 0.00 | 76 | 1014.0 |
| 20260905215627 | 83 | 23 | 3.5 | 8.7 | 0.00 | 0.00 | 0.00 | 76 | 1014.0 |
| 20260905215139 | 83 | 26 | 3.5 | 8.7 | 0.00 | 0.00 | 0.00 | 75 | 1013.9 |
| 20260905214623 | 83 | 13 | 2.6 | 7.8 | 0.00 | 0.00 | 0.00 | 76 | 1014.0 |
| 20260905214128 | 84 | 17 | 1.7 | 9.6 | 0.00 | 0.00 | 0.00 | 76 | 1014.0 |
| 20260905213612 | 84 | 58 | 3.5 | 11.3 | 0.00 | 0.00 | 0.00 | 76 | 1013.9 |
| 20260905213125 | 84 | 37 | 1.7 | 11.3 | 0.00 | 0.00 | 0.00 | 77 | 1013.9 |
| 20260905212631 | 84 | 360 | 2.6 | 9.6 | 0.00 | 0.00 | 0.00 | 76 | 1013.9 |
| 20260905212116 | 84 | 320 | 5.2 | 9.6 | 0.00 | 0.00 | 0.00 | 76 | 1013.8 |
| 20260905211628 | 84 | 351 | 3.5 | 9.6 | 0.00 | 0.00 | 0.00 | 76 | 1013.7 |
| 20260905211112 | 84 | 13 | 5.2 | 9.6 | 0.00 | 0.00 | 0.00 | 76 | 1013.6 |
| 20260905210616 | 84 | 11 | 4.3 | 9.6 | 0.00 | 0.00 | 0.00 | 76 | 1013.7 |
| 20260905210127 | 84 | 339 | 4.3 | 9.6 | 0.00 | 0.00 | 0.00 | 77 | 1013.7 |
| 20260905205611 | 84 | 11 | 3.5 | 9.6 | 0.00 | 0.00 | 0.00 | 77 | 1013.8 |
| 20260905205122 | 84 | 339 | 2.6 | 8.7 | 0.00 | 0.00 | 0.00 | 76 | 1013.9 |
| 20260905204628 | 85 | 355 | 4.3 | 11.3 | 0.00 | 0.00 | 0.00 | 76 | 1013.8 |
| 20260905204112 | 85 | 344 | 3.5 | 8.7 | 0.00 | 0.00 | 0.00 | 76 | 1013.8 |
| 20260905203624 | 84 | 355 | 3.5 | 8.7 | 0.00 | 0.00 | 0.00 | 75 | 1013.8 |
| 20260905203113 | 85 | 36 | 1.7 | 7.8 | 0.00 | 0.00 | 0.00 | 75 | 1013.7 |
| 20260905202617 | 85 | 10 | 4.3 | 8.7 | 0.00 | 0.00 | 0.00 | 75 | 1013.6 |
| 20260905202146 | 86 | 360 | 3.5 | 8.7 | 0.00 | 0.00 | 0.00 | 76 | 1013.6 |
| 20260905201658 | 85 | 74 | 2.6 | 9.6 | 0.00 | 0.00 | 0.00 | 76 | 1013.6 |
| 20260905201121 | 86 | 339 | 3.5 | 9.6 | 0.00 | 0.00 | 0.00 | 76 | 1013.8 |
| 20260905200634 | 86 | 11 | 3.5 | 7.8 | 0.00 | 0.00 | 0.00 | 74 | 1013.9 |
| 20260905200138 | 86 | 348 | 1.7 | 7.8 | 0.00 | 0.00 | 0.00 | 75 | 1013.8 |
| 20260905195650 | 87 | 71 | 3.5 | 7.8 | 0.00 | 0.00 | 0.00 | 74 | 1013.7 |
| 20260905195113 | 87 | 24 | 2.6 | 7.0 | 0.00 | 0.00 | 0.00 | 74 | 1013.7 |
| 20260905194624 | 87 | 13 | 1.7 | 7.0 | 0.00 | 0.00 | 0.00 | 75 | 1013.8 |
| 20260905194126 | 87 | 43 | 2.6 | 7.8 | 0.00 | 0.00 | 0.00 | 74 | 1013.8 |
| 20260905193656 | 87 | 5 | 3.5 | 8.7 | 0.00 | 0.00 | 0.00 | 73 | 1013.8 |
| 20260905193118 | 87 | 348 | 3.5 | 9.6 | 0.00 | 0.00 | 0.00 | 74 | 1013.8 |
| 20260905192624 | 87 | 360 | 4.3 | 9.6 | 0.00 | 0.00 | 0.00 | 75 | 1013.8 |
| 20260905192136 | 87 | 349 | 2.6 | 7.8 | 0.00 | 0.00 | 0.00 | 75 | 1013.8 |
| 20260905191640 | 87 | 5 | 1.7 | 7.0 | 0.00 | 0.00 | 0.00 | 75 | 1013.7 |
| 20260905191151 | 86 | 14 | 2.6 | 8.7 | 0.00 | 0.00 | 0.00 | 76 | 1013.8 |
| 20260905190615 | 87 | 355 | 3.5 | 8.7 | 0.00 | 0.00 | 0.00 | 74 | 1013.8 |
| 20260905190127 | 86 | 51 | 0.9 | 7.0 | 0.00 | 0.00 | 0.00 | 76 | 1013.8 |
| 20260905185612 | 86 | 48 | 2.6 | 7.0 | 0.00 | 0.00 | 0.00 | 74 | 1013.8 |
| 20260905185144 | 86 | 30 | 0.0 | 7.0 | 0.00 | 0.00 | 0.00 | 76 | 1013.9 |
| 20260905184629 | 86 | 30 | 2.6 | 7.0 | 0.00 | 0.00 | 0.00 | 74 | 1013.9 |
| 20260905184114 | 86 | 31 | 1.7 | 7.0 | 0.00 | 0.00 | 0.00 | 77 | 1013.9 |
| 20260905183644 | 86 | 340 | 3.5 | 8.7 | 0.00 | 0.00 | 0.00 | 76 | 1013.9 |
| 20260905183133 | 86 | 19 | 3.5 | 8.7 | 0.00 | 0.00 | 0.00 | 76 | 1014.0 |
| 20260905182637 | 86 | 19 | 2.6 | 6.1 | 0.00 | 0.00 | 0.00 | 75 | 1014.0 |
| 20260905182125 | 86 | 48 | 2.6 | 6.1 | 0.00 | 0.00 | 0.00 | 75 | 1014.1 |
| 20260905181627 | 87 | 19 | 1.7 | 5.2 | 0.00 | 0.00 | 0.00 | 75 | 1014.1 |
| 20260905181138 | 87 | 45 | 1.7 | 5.2 | 0.00 | 0.00 | 0.00 | 75 | 1014.1 |
| 20260905180621 | 87 | 19 | 2.6 | 5.2 | 0.00 | 0.00 | 0.00 | 76 | 1014.0 |
| 20260905180132 | 86 | 42 | 1.7 | 5.2 | 0.00 | 0.00 | 0.00 | 76 | 1014.0 |
| 20260905175616 | 86 | 32 | 2.6 | 7.0 | 0.00 | 0.00 | 0.00 | 76 | 1014.0 |
| 20260905175124 | 86 | 34 | 2.6 | 7.0 | 0.00 | 0.00 | 0.00 | 77 | 1014.1 |
| 20260905174635 | 86 | 31 | 1.7 | 4.3 | 0.00 | 0.00 | 0.00 | 76 | 1014.1 |
| 20260905174121 | 86 | 44 | 0.9 | 5.2 | 0.00 | 0.00 | 0.00 | 76 | 1014.1 |
| 20260905173624 | 87 | 38 | 2.6 | 5.2 | 0.00 | 0.00 | 0.00 | 76 | 1014.2 |
| 20260905173115 | 87 | 62 | 1.7 | 4.3 | 0.00 | 0.00 | 0.00 | 76 | 1014.2 |
| 20260905172617 | 86 | 340 | 0.9 | 4.3 | 0.00 | 0.00 | 0.00 | 76 | 1014.2 |
| 20260905172127 | 86 | 360 | 1.7 | 7.0 | 0.00 | 0.00 | 0.00 | 77 | 1014.1 |
| 20260905171612 | 86 | 36 | 1.7 | 5.2 | 0.00 | 0.00 | 0.00 | 77 | 1014.1 |
| 20260905171113 | 86 | 22 | 0.9 | 5.2 | 0.00 | 0.00 | 0.00 | 78 | 1014.3 |
| 20260905170623 | 86 | 72 | 1.7 | 5.2 | 0.00 | 0.00 | 0.00 | 78 | 1014.3 |
| 20260905170125 | 85 | 20 | 1.7 | 5.2 | 0.00 | 0.00 | 0.00 | 78 | 1014.2 |
| 20260905165633 | 85 | 51 | 0.9 | 5.2 | 0.00 | 0.00 | 0.00 | 79 | 1014.2 |
| 20260905165114 | 85 | 44 | 0.9 | 4.3 | 0.00 | 0.00 | 0.00 | 80 | 1014.1 |
| 20260905164622 | 84 | 34 | 0.9 | 5.2 | 0.00 | 0.00 | 0.00 | 81 | 1014.2 |
| 20260905164128 | 84 | 34 | 3.5 | 5.2 | 0.00 | 0.00 | 0.00 | 80 | 1014.2 |
| 20260905163613 | 84 | 5 | 2.6 | 4.3 | 0.00 | 0.00 | 0.00 | 81 | 1014.2 |
| 20260905163125 | 84 | 22 | 0.9 | 5.2 | 0.00 | 0.00 | 0.00 | 81 | 1014.2 |
| 20260905162654 | 84 | 22 | 3.5 | 6.1 | 0.00 | 0.00 | 0.00 | 81 | 1014.2 |
| 20260905162112 | 84 | 42 | 1.7 | 7.8 | 0.00 | 0.00 | 0.00 | 82 | 1014.2 |
| 20260905161741 | 83 | 43 | 2.6 | 7.8 | 0.00 | 0.00 | 0.00 | 81 | 1014.3 |
| 20260905161114 | 83 | 24 | 2.6 | 7.0 | 0.00 | 0.00 | 0.00 | 81 | 1014.3 |
| 20260905160615 | 83 | 34 | 1.7 | 4.3 | 0.00 | 0.00 | 0.00 | 83 | 1014.4 |
| 20260905160125 | 83 | 38 | 1.7 | 6.1 | 0.00 | 0.00 | 0.00 | 82 | 1014.4 |
| 20260905155627 | 83 | 46 | 3.5 | 6.1 | 0.00 | 0.00 | 0.00 | 82 | 1014.4 |
| 20260905155113 | 83 | 38 | 1.7 | 7.0 | 0.00 | 0.00 | 0.00 | 83 | 1014.4 |
| 20260905154621 | 82 | 5 | 3.5 | 7.8 | 0.00 | 0.00 | 0.00 | 83 | 1014.4 |
| 20260905154125 | 82 | 56 | 3.5 | 7.8 | 0.00 | 0.00 | 0.00 | 82 | 1014.3 |
| 20260905153636 | 82 | 35 | 1.7 | 7.0 | 0.00 | 0.00 | 0.00 | 82 | 1014.2 |
| 20260905153119 | 82 | 49 | 1.7 | 7.8 | 0.00 | 0.00 | 0.00 | 83 | 1014.2 |
| 20260905152650 | 82 | 33 | 3.5 | 7.8 | 0.00 | 0.00 | 0.00 | 82 | 1014.2 |
| 20260905152131 | 82 | 5 | 4.3 | 7.8 | 0.00 | 0.00 | 0.00 | 84 | 1014.1 |
| 20260905151638 | 82 | 56 | 1.7 | 7.0 | 0.00 | 0.00 | 0.00 | 83 | 1014.1 |
| 20260905151121 | 82 | 22 | 2.6 | 8.7 | 0.00 | 0.00 | 0.00 | 84 | 1014.1 |
| 20260905150624 | 82 | 329 | 1.7 | 8.7 | 0.00 | 0.00 | 0.00 | 85 | 1014.0 |
| 20260905150134 | 82 | 342 | 4.3 | 7.8 | 0.00 | 0.00 | 0.00 | 84 | 1013.9 |
| 20260905145617 | 82 | 355 | 2.6 | 9.6 | 0.00 | 0.00 | 0.00 | 84 | 1013.8 |
| 20260905145119 | 82 | 43 | 3.5 | 9.6 | 0.00 | 0.00 | 0.00 | 85 | 1013.7 |
| 20260905144628 | 82 | 32 | 3.5 | 9.6 | 0.00 | 0.00 | 0.00 | 85 | 1013.7 |
| 20260905144131 | 82 | 5 | 2.6 | 8.7 | 0.00 | 0.00 | 0.00 | 85 | 1013.5 |
| 20260905143620 | 82 | 15 | 2.6 | 8.7 | 0.00 | 0.00 | 0.00 | 86 | 1013.4 |
| 20260905143122 | 81 | 26 | 4.3 | 8.7 | 0.00 | 0.00 | 0.00 | 86 | 1013.4 |